Temp
17 18 18 18 18 19 18 18 18 19 19 19 18 18 19 19 20 21 21 20 19 19 19 19 19 18 18 18 18 17 17 17 17
17 17 18 18 18 19 18 18 18 18 19 19 19 18 19 19 20 21 20 19 19 19 19 18 19 19 18 17 17 17 17 17 17
17 17 18 18 18 18 18 18 18 19 18 19 18 18 19 20 20 20 20 19 19 18 19 18 18 18 18 18 17 17 17 17 17
16 17 17 18 17 18 18 18 18 18 18 18 18 19 19 19 20 20 19 18 18 18 18 18 18 18 17 18 18 17 17 17 17
15 16 16 17 18 18 18 18 18 18 18 18 18 18 19 19 20 20 19 19 18 18 17 17 18 18 17 17 18 17 17 17 17
15 15 16 17 17 17 17 18 18 18 18 18 18 18 18 19 19 19 19 19 18 17 17 18 17 17 17 17 18 17 17 17 18
13 15 16 16 17 17 17 18 17 17 17 18 18 18 17 18 18 18 18 18 18 17 17 17 17 17 17 17 17 17 17 17 18
12 14 15 15 16 16 17 17 16 17 18 18 18 17 17 17 18 18 18 18 18 18 18 17 18 17 17 17 17 17 17 17 17
12 13 14 15 15 15 16 16 16 16 17 17 18 18 18 17 18 18 18 18 18 17 17 17 17 18 17 17 17 17 17 16 17
10 11 13 13 14 14 14 15 16 16 16 17 17 17 17 17 17 17 18 18 18 17 17 16 16 16 16 16 17 17 17 16 16
10 10 11 12 12 13 13 13 14 15 15 16 16 16 16 16 16 16 16 17 17 17 17 17 16 16 16 17 16 17 17 16 16
10 10 10 10 10 11 12 12 14 14 14 14 15 16 16 16 15 15 15 15 16 16 16 17 16 16 16 16 16 16 16 16 16
8 9 9 10 10 9 10 11 11 12 13 13 14 15 15 14 15 16 15 15 15 15 16 16 15 16 16 16 16 16 16 16 16
8 8 8 9 9 9 9 10 10 10 11 12 13 14 14 14 15 15 14 14 14 15 15 16 15 15 16 15 15 15 16 16 16
7 8 7 8 8 8 8 8 9 10 9 10 12 13 14 14 15 15 14 14 14 14 14 14 14 15 15 15 14 15 15 15 15
5 6 7 7 7 6 7 7 8 8 7 10 12 13 14 15 15 14 14 14 14 14 14 14 14 13 15 14 14 14 15 15 15
4 4 5 5 6 6 6 5 6 7 6 7 9 13 15 13 15 15 13 12 12 12 12 11 12 13 13 13 13 13 14 14 15
3 3 4 4 4 4 5 4 4 5 6 6 6 10 10 10 13 11 10 9 9 8 9 8 9 9 10 11 12 13 13 13 14
2 2 3 3 3 4 4 4 4 3 4 5 5 5 5 8 10 11 8 7 7 6 5 5 6 6 5 6 5 8 10 12 12
2 2 2 2 2 2 3 3 3 4 3 3 3 4 5 4 6 7 9 7 4 4 4 3 4 3 4 4 4 5 7 10 11
Height
791 790 790 790 791 790 790 790 791 792 792 793 794 795 797 799 799 799 800 803 804 804 805 808 809 811 812 815 817 819 820 822 822
789 788 789 789 789 788 790 790 791 791 790 792 794 795 796 798 799 800 800 803 803 805 806 808 809 812 813 815 818 819 821 822 823
787 788 788 788 787 787 789 789 790 789 790 791 792 794 796 797 798 800 801 802 803 805 806 808 810 811 813 815 818 820 822 823 824
786 786 787 786 787 787 786 787 789 789 789 789 792 793 795 798 798 800 802 802 803 805 806 808 810 812 813 815 817 820 822 823 824
785 784 785 785 786 785 785 785 786 787 789 788 790 793 793 796 797 800 800 801 802 805 806 808 810 812 813 814 816 818 821 823 825
785 783 782 783 783 783 784 782 784 787 787 787 789 791 792 794 796 798 800 800 801 803 805 807 809 811 813 814 816 817 819 821 824
782 782 781 781 781 781 782 782 782 787 786 784 786 788 790 793 794 797 798 799 801 802 804 806 808 809 812 813 815 816 818 820 822
782 781 780 780 779 779 780 779 780 786 785 782 783 785 788 790 792 796 796 797 800 801 802 805 807 809 810 811 814 815 817 819 821
783 782 781 780 779 778 777 778 780 779 783 782 781 783 785 787 789 791 794 795 798 800 802 803 806 807 809 810 812 814 816 818 819
784 783 782 780 780 778 778 777 778 779 779 779 779 780 782 785 788 788 789 791 794 797 800 802 804 806 808 808 809 812 814 816 818
785 784 783 782 781 781 778 777 777 777 776 776 778 778 779 781 783 786 786 788 791 794 797 799 802 803 806 806 807 808 811 813 815
787 785 785 784 784 782 780 780 777 774 775 776 775 777 777 776 781 782 777 785 789 789 792 794 798 800 802 804 804 805 807 809 810
790 788 786 785 784 783 783 782 778 778 778 774 773 770 772 776 775 774 780 772 780 787 786 789 792 796 798 800 802 803 802 804 805
794 792 790 789 788 786 785 783 781 779 776 774 772 770 770 770 774 770 773 779 778 776 779 780 787 788 792 794 798 799 798 799 800
795 795 793 791 791 789 787 785 783 780 776 774 771 769 769 770 770 770 771 771 768 768 770 777 780 783 786 788 791 794 793 794 795
797 796 795 793 792 791 789 787 784 782 779 774 769 766 767 767 767 766 768 765 768 767 769 772 775 776 778 782 783 788 787 788 789
797 797 796 795 795 793 791 789 788 787 786 783 777 767 764 765 765 767 769 767 767 765 765 766 768 770 774 777 779 780 779 781 781
799 798 799 798 796 795 795 793 792 790 789 788 787 778 773 774 767 767 767 767 766 766 766 766 766 767 765 769 771 771 772 772 772
803 802 800 800 799 798 797 796 795 793 792 790 789 789 787 782 775 770 771 771 769 770 769 770 769 769 768 767 770 767 765 767 768
804 804 803 802 800 800 799 798 796 796 795 794 792 790 789 788 786 779 775 775 775 775 774 776 772 772 770 769 768 767 765 765 764
Wind_Speed
8 7 11 11 10 9 10 10 10 10 10 10 9 10 11 14 14 9 12 11 13 14 14 11 11 12 15 12 11 10 10 9 8
9 8 9 11 10 7 9 11 11 11 11 11 10 10 13 16 13 8 8 10 13 12 12 11 10 10 14 12 9 9 9 9 7
10 10 9 11 10 8 9 11 12 11 11 12 13 12 15 16 9 11 11 9 12 10 8 8 9 11 11 10 8 9 10 9 10
11 11 10 9 11 10 9 10 12 12 11 12 13 14 15 14 9 9 11 11 11 9 8 9 10 10 11 10 9 10 11 8 13
10 11 11 12 10 11 12 10 12 14 13 12 14 15 16 18 14 14 13 14 13 11 9 9 9 11 12 13 10 11 14 11 12
10 10 15 15 16 11 14 12 13 15 15 13 14 15 18 20 15 15 14 16 15 13 12 10 10 9 13 15 13 14 18 16 13
14 11 12 15 14 15 15 16 11 16 13 12 15 16 14 16 16 16 15 18 16 14 13 12 10 11 14 16 15 15 18 20 17
9 9 8 11 12 14 14 13 14 17 15 14 11 14 16 18 19 16 16 18 18 15 16 14 10 10 15 18 19 18 18 20 19
10 8 6 7 8 9 9 8 14 18 15 15 14 15 15 18 20 18 19 19 19 17 14 16 14 11 13 16 19 18 18 20 23
11 11 11 9 7 6 5 7 9 11 15 17 15 15 17 17 17 20 23 19 20 19 17 15 15 14 14 16 19 22 21 20 24
11 11 14 15 13 11 11 6 7 11 12 15 17 18 16 18 23 21 22 18 20 21 20 18 16 16 17 17 20 23 23 24 23
14 15 14 13 14 13 13 12 8 10 9 11 15 16 17 16 20 23 29 27 22 22 20 21 22 22 22 19 19 22 23 28 27
13 15 15 16 13 11 12 13 12 10 8 9 11 19 20 19 19 26 25 30 29 29 25 25 25 27 25 22 21 20 21 25 31
12 12 14 13 12 15 14 12 11 12 12 12 13 12 13 17 26 21 27 29 35 37 33 30 32 30 33 28 25 22 22 23 26
12 11 13 13 12 13 14 13 13 13 12 13 15 15 14 15 16 18 21 24 25 24 31 26 32 35 38 33 30 28 26 25 27
14 12 12 13 12 13 15 15 16 13 19 14 9 10 12 14 16 14 16 18 21 21 22 28 29 28 29 27 32 32 30 30 28
12 12 12 13 12 14 15 16 15 9 16 10 13 4 7 6 7 12 11 6 6 4 3 4 8 14 18 21 24 28 32 34 31
13 13 12 12 12 13 13 14 14 11 10 11 5 4 3 10 10 11 11 10 11 11 9 7 6 5 2 5 13 24 31 35 31
13 12 12 12 11 12 12 11 11 11 11 6 10 8 6 3 4 4 13 14 19 16 14 13 10 9 10 10 21 10 10 21 25
11 12 12 12 11 11 11 11 10 8 7 8 8 6 7 5 2 4 6 11 15 13 13 11 13 12 11 12 18 24 20 10 12
Wind_Direction
294 279 258 266 273 285 249 243 240 238 232 238 235 222 197 192 204 205 171 181 192 179 175 167 163 165 163 160 157 153 149 149 148
273 271 264 257 262 280 255 244 242 241 232 230 226 215 195 196 217 199 176 190 190 186 173 166 173 172 163 157 160 158 159 156 155
273 268 269 258 257 257 256 249 248 238 237 232 223 214 204 206 221 206 187 202 187 179 175 176 175 184 176 172 168 173 166 166 159
288 267 269 267 257 249 247 249 251 245 238 233 230 221 209 210 215 197 199 202 186 185 199 198 192 182 189 195 188 184 184 184 176
302 280 274 261 255 249 242 242 248 246 245 238 231 222 219 213 224 208 207 207 189 190 202 203 208 212 206 205 204 201 196 183 185
301 281 263 262 253 262 254 239 242 249 243 237 237 226 223 217 231 221 217 216 204 195 204 207 210 216 213 215 212 206 196 189 183
282 308 299 273 265 250 251 243 251 254 241 240 231 226 220 221 224 228 225 229 217 202 207 214 218 221 216 219 223 216 211 202 194
340 310 302 295 268 266 253 247 234 254 247 235 223 221 221 226 227 226 232 235 222 216 215 218 230 240 227 232 228 231 219 206 200
22 16 322 326 305 291 266 250 237 234 259 244 240 233 226 230 232 229 232 235 225 223 225 223 230 248 243 240 228 224 220 220 209
21 26 35 27 3 355 319 277 262 266 255 251 245 244 241 243 241 234 236 234 222 229 231 234 237 241 248 238 239 231 232 227 219
30 25 26 28 21 10 5 346 292 277 270 266 252 248 250 256 255 251 255 244 237 234 236 242 252 253 253 248 246 248 241 233 233
33 32 20 9 6 3 1 340 344 321 322 291 265 271 267 264 270 263 255 247 247 248 249 250 261 261 259 263 262 256 249 242 235
16 25 18 13 7 5 357 346 343 325 320 310 286 272 273 285 282 280 278 233 236 246 236 246 250 262 269 263 267 270 264 252 241
15 14 11 15 9 9 3 350 339 324 327 323 307 286 283 275 266 268 255 252 236 234 242 235 238 248 254 257 271 269 266 265 251
24 22 19 19 16 13 7 358 348 339 340 312 296 289 272 270 263 257 258 248 246 239 235 235 242 247 249 252 258 263 262 259 258
26 25 21 21 22 16 12 4 359 357 349 323 320 307 280 261 251 255 264 272 270 264 253 245 238 239 242 250 255 260 260 261 255
29 26 23 20 16 17 18 16 6 3 7 346 309 308 318 344 288 260 261 308 300 304 319 241 229 234 241 249 250 258 261 258 254
32 30 23 21 24 16 15 17 17 0 1 1 358 333 350 335 2 55 47 36 43 41 27 17 16 28 89 225 245 250 250 253 255
26 26 28 26 24 18 12 11 11 10 7 6 359 349 360 339 318 39 50 36 33 34 42 37 39 43 43 55 33 17 331 273 268
27 26 24 22 22 17 12 11 15 10 9 8 354 347 340 359 310 300 310 13 28 38 42 40 47 52 45 30 35 26 21 346 313